sat.trackr.live / text

‹ back to catalog

HEAD-3B

NORAD 57627 · 2023-121B

PAYLOAD ACTIVE UNKNOWN

§ Identity

Operator
Country
PRC
Launch date
2023-08-14
Launch site
XICLF
Launch vehicle
Mass (kg)
RCS (m²)

External: N2YO · Heavens-Above · Gunter

§ Orbital elements

Epoch: 2026-05-25T04:34:57.242784Z

Period
98.53 min
Inclination
45.0034°
Eccentricity
0.0004572
Mean motion
14.61535424 rev/d
Perigee alt
685.0 km
Apogee alt
691.5 km
Semi-major
7,066.4 km
B*
1.7461e-4
RAAN
58.1460°
Arg perigee
153.5911°
Mean anomaly
206.5180°
Rev number
14,830

§ Raw data

HEAD-3B1 57627U 23121B   26145.19094031  .00000715  00000+0  17461-3 0  99952 57627  45.0034  58.1460 0004572 153.5911 206.5180 14.61535424148305

JSON: /api/v1/satellites/57627 · /tle

For live sub-satellite position, see the globe view (requires WebGL).

§ Visibility from observer

Set your observer location to see the next 7 days of passes ≥ 10°. The values pass through the URL so the page stays shareable.

No JS? Fill the form by hand. The geolocation button needs JavaScript.